Fort Wayne, IN

6:14 PM EDT on July 23, 2019 (GMT -0400)
Fort Wayne International

Weather History for KFWA - May, 2019

Change the Weather History Date:

Thursday, May 23, 2019

  Actual Average Record
Temperature  
Mean Temperature 70 °F 63 °F  
Max Temperature 79 °F 74 °F 91 °F (2007)
Min Temperature 61 °F 52 °F 31 °F (1963)
Degree Days  
Heating Degree Days 0 5  
Month to date heating degree days 165 163  
Since 1 July heating degree days 5847 6045  
Cooling Degree Days 5 2  
Month to date cooling degree days 21 27  
Year to date cooling degree days 21 35  
Growing Degree Days 22 (Base 50)    
Moisture  
Dew Point 62 °F    
Average Humidity 70    
Maximum Humidity 87    
Minimum Humidity 52    
Precipitation  
Precipitation 0.30 in 0.16 in 1.91 in (2011)
Month to date precipitation 2.77 2.97  
Year to date precipitation 16.82 13.50  
Snow  
Snow 0.00 in 0.00 in 0.00 in (2002)
Month to date snowfall 0.0 0.0  
Since 1 July snowfall 24.7 33.5  
Snow Depth 0.00 in    
Sea Level Pressure  
Sea Level Pressure 30.01 in    
Wind  
Wind Speed 15 mph (WSW)    
Max Wind Speed 40 mph    
Max Gust Speed 56 mph    
Visibility 9 miles    
Events Rain , Thunderstorm    
T = Trace of Precipitation, MM = Missing Value Source: NWS Daily Summary

Daily Weather History Graph

Daily Weather History Graph

Search for Another Location

Airport or City:

Astronomy

May. 23, 2019 Rise Set
Actual Time 6:16 AM EDT 8:59 PM EDT
Civil Twilight 5:44 AM EDT 9:31 PM EDT
Nautical Twilight 5:04 AM EDT 10:11 PM EDT
Astronomical Twilight 4:18 AM EDT 10:57 PM EDT
Moon 12:41 AM EDT 10:18 AM EDT
Length of Visible Light 15h 46m
Length of Day
14h 42m
Waning Gibbous, 77% of the Moon is Illuminated
May 23
Waning Gibbous
May 26
Last Quarter
Jun 3
New
Jun 10
First Quarter
Jun 17
Full

Hourly Weather History & Observations

Time (EDT) Temp. Dew Point Humidity Pressure Visibility Wind Dir Wind Speed Gust Speed Precip Events Conditions
12:54 AM 66.0 °F 62.1 °F 87% 30.00 in 10.0 mi South 11.5 mph - N/A   Overcast
1:54 AM 66.9 °F 63.0 °F 87% 29.98 in 10.0 mi South 11.5 mph - N/A   Overcast
2:54 AM 66.9 °F 63.0 °F 87% 29.97 in 10.0 mi SSW 9.2 mph - N/A   Overcast
3:54 AM 68.0 °F 64.9 °F 90% 29.94 in 10.0 mi South 11.5 mph - N/A   Overcast
4:54 AM 71.1 °F 66.0 °F 84% 29.94 in 9.0 mi SSW 16.1 mph - N/A Thunderstorm Thunderstorm
5:25 AM 70.0 °F 66.0 °F 87% 30.01 in 2.5 mi WSW 34.5 mph 56.4 mph 0.01 in Rain , Thunderstorm Thunderstorms and Rain
5:29 AM 66.9 °F 62.1 °F 84% 30.02 in 1.5 mi WSW 34.5 mph 56.4 mph 0.03 in Rain , Thunderstorm Heavy Thunderstorms and Rain
5:32 AM 66.0 °F 62.1 °F 87% 30.02 in 1.5 mi WSW 34.5 mph 56.4 mph 0.08 in Rain , Thunderstorm Heavy Thunderstorms and Rain
5:39 AM 66.0 °F 62.1 °F 87% 30.02 in 2.5 mi WSW 25.3 mph 47.2 mph 0.19 in Rain , Thunderstorm Heavy Thunderstorms and Rain
5:54 AM 66.9 °F 63.0 °F 87% 30.01 in 4.0 mi West 25.3 mph 40.3 mph 0.22 in Rain , Thunderstorm Light Thunderstorms and Rain
6:09 AM 66.0 °F 62.1 °F 87% 30.03 in 4.0 mi WSW 24.2 mph 41.4 mph 0.06 in Rain Rain
6:54 AM 66.9 °F 62.1 °F 84% 30.01 in 10.0 mi SW 17.3 mph - 0.08 in   Overcast
7:54 AM 66.0 °F 62.1 °F 87% 30.00 in 10.0 mi SSW 12.7 mph - N/A   Overcast
8:54 AM 68.0 °F 62.1 °F 81% 30.00 in 10.0 mi SW 19.6 mph 27.6 mph 0.00 in   Overcast
9:54 AM 71.1 °F 63.0 °F 75% 30.01 in 10.0 mi WSW 20.7 mph 29.9 mph N/A   Mostly Cloudy
10:19 AM 72.0 °F 64.0 °F 76% 30.01 in 10.0 mi WSW 17.3 mph 29.9 mph N/A   Mostly Cloudy
10:54 AM 73.0 °F 64.9 °F 76% 29.99 in 10.0 mi WSW 16.1 mph - N/A   Mostly Cloudy
11:54 AM 73.9 °F 66.0 °F 76% 30.01 in 10.0 mi West 21.9 mph 31.1 mph N/A   Mostly Cloudy
12:54 PM 75.0 °F 64.9 °F 71% 30.01 in 10.0 mi WSW 21.9 mph 33.4 mph N/A   Mostly Cloudy
1:01 PM 75.9 °F 64.9 °F 69% 30.02 in 10.0 mi WSW 24.2 mph 34.5 mph N/A   Mostly Cloudy
1:54 PM 77.0 °F 64.0 °F 64% 30.01 in 10.0 mi WSW 19.6 mph 31.1 mph N/A   Mostly Cloudy
2:54 PM 78.1 °F 64.0 °F 62% 30.00 in 10.0 mi West 23.0 mph - N/A   Scattered Clouds
3:54 PM 78.1 °F 62.1 °F 58% 30.00 in 10.0 mi West 20.7 mph 34.5 mph N/A   Scattered Clouds
4:54 PM 78.1 °F 62.1 °F 58% 30.00 in 10.0 mi West 19.6 mph 27.6 mph N/A   Partly Cloudy
5:54 PM 78.1 °F 59.0 °F 52% 30.01 in 10.0 mi West 18.4 mph - N/A   Partly Cloudy
6:54 PM 75.9 °F 57.9 °F 54% 30.01 in 10.0 mi West 15.0 mph - N/A   Partly Cloudy
7:54 PM 75.0 °F 57.9 °F 55% 30.03 in 10.0 mi West 12.7 mph - N/A   Partly Cloudy
8:54 PM 71.1 °F 57.9 °F 63% 30.05 in 10.0 mi West 10.4 mph - N/A   Partly Cloudy
9:54 PM 66.9 °F 59.0 °F 76% 30.06 in 10.0 mi West 6.9 mph - N/A   Partly Cloudy
10:54 PM 66.0 °F 57.9 °F 75% 30.08 in 10.0 mi WNW 4.6 mph - N/A   Clear
11:54 PM 63.0 °F 57.0 °F 81% 30.09 in 10.0 mi WNW 4.6 mph - N/A   Partly Cloudy